Powrót do katalogu

STARLINK-36344

AktywnyŁącznośćSSO
NORAD 67710·PAYLOAD·🇺🇸 United States

Wystrzelony Feb 7, 2026 z Vandenberg Space Force Base

Loading…

Następne Przeloty (najbliższe 24 godziny)

TLE

ŚwieżeSource: CelesTrak SupGP

Epoka: Sep 14, 2026, 22:55 UTC

1 67710C 26025T   26257.95534722 -.00200320  00000+0 -62104-2 0  2575
2 67710  97.2850   7.9437 0001092  96.7002   8.4641 15.33581729    18

Śledź STARLINK-36344 w czasie rzeczywistym z AllMySat

Download on the App Store